QPF
0.00 0.00 0.00 0.00 0.00 0.00 0.00 0.00 0.00 0.00 0.00 0.00 0.00 0.00 0.00 0.00 0.00 0.00 0.01 0.01 0.01 0.00 0.00 0.00 0.00 0.00 0.00 0.00 0.00 0.00 0.00 0.00 0.00 0.00 0.00 0.00 0.00 0.00 0.00 0.00 0.01 0.03 0.03 0.03 0.02 0.02 0.02 0.01 0.02
0.00 0.00 0.00 0.00 0.00 0.00 0.00 0.00 0.00 0.00 0.00 0.00 0.00 0.00 0.00 0.00 0.00 0.00 0.01 0.01 0.01 0.00 0.00 0.00 0.00 0.00 0.00 0.00 0.00 0.00 0.00 0.00 0.00 0.00 0.00 0.00 0.00 0.00 0.00 0.00 0.00 0.00 0.00 0.00 0.00 0.00 0.00 0.00 0.00
0.00 0.00 0.00 0.00 0.00 0.00 0.00 0.00 0.00 0.00 0.00 0.00 0.00 0.00 0.00 0.00 0.00 0.00 0.00 0.00 0.00 0.01 0.01 0.01 0.00 0.00 0.00 0.00 0.00 0.00 0.00 0.00 0.00 0.00 0.00 0.00 0.00 0.00 0.00 0.00 0.00 0.00 0.00 0.00 0.00 0.00 0.00 0.00 0.00
0.00 0.00 0.00 0.00 0.00 0.00 0.00 0.00 0.00 0.00 0.00 0.00 0.00 0.00 0.00 0.00 0.00 0.00 0.00 0.00 0.00 0.01 0.03 0.01 0.00 0.00 0.00 0.00 0.00 0.00 0.00 0.00 0.01 0.00 0.00 0.00 0.00 0.00 0.00 0.00 0.00 0.00 0.00 0.00 0.00 0.00 0.00 0.00 0.00
0.00 0.00 0.00 0.00 0.00 0.00 0.00 0.00 0.00 0.00 0.00 0.00 0.00 0.00 0.00 0.00 0.00 0.00 0.00 0.01 0.01 0.02 0.04 0.02 0.00 0.00 0.00 0.00 0.00 0.00 0.00 0.01 0.02 0.01 0.00 0.00 0.00 0.00 0.00 0.00 0.00 0.00 0.00 0.00 0.00 0.00 0.00 0.00 0.00
0.00 0.00 0.00 0.00 0.00 0.00 0.00 0.00 0.00 0.00 0.00 0.00 0.00 0.00 0.00 0.00 0.00 0.00 0.01 0.03 0.00 0.01 0.03 0.01 0.00 0.00 0.00 0.00 0.00 0.01 0.01 0.01 0.01 0.00 0.00 0.00 0.00 0.00 0.00 0.00 0.00 0.00 0.00 0.00 0.00 0.00 0.00 0.00 0.00
0.00 0.00 0.00 0.00 0.00 0.00 0.00 0.00 0.00 0.00 0.00 0.00 0.00 0.00 0.00 0.00 0.00 0.00 0.00 0.00 0.01 0.01 0.01 0.00 0.00 0.00 0.01 0.01 0.00 0.00 0.00 0.00 0.00 0.00 0.00 0.00 0.00 0.00 0.00 0.00 0.00 0.00 0.00 0.00 0.00 0.00 0.00 0.00 0.00
0.00 0.00 0.00 0.00 0.00 0.00 0.00 0.00 0.00 0.00 0.00 0.00 0.00 0.00 0.00 0.00 0.00 0.01 0.01 0.01 0.01 0.01 0.02 0.01 0.01 0.01 0.02 0.00 0.00 0.00 0.00 0.00 0.00 0.00 0.00 0.00 0.00 0.00 0.00 0.00 0.00 0.00 0.00 0.00 0.00 0.00 0.00 0.00 0.00
0.00 0.00 0.00 0.00 0.00 0.00 0.00 0.00 0.00 0.00 0.00 0.00 0.00 0.00 0.00 0.00 0.00 0.05 0.06 0.01 0.00 0.00 0.01 0.00 0.00 0.02 0.06 0.04 0.04 0.05 0.05 0.02 0.00 0.00 0.00 0.00 0.00 0.00 0.00 0.00 0.00 0.00 0.00 0.00 0.00 0.00 0.00 0.00 0.00
0.00 0.00 0.00 0.00 0.00 0.00 0.00 0.00 0.00 0.00 0.00 0.00 0.00 0.00 0.00 0.00 0.00 0.03 0.02 0.02 0.01 0.01 0.00 0.00 0.00 0.01 0.07 0.10 0.12 0.14 0.11 0.04 0.00 0.00 0.00 0.00 0.00 0.00 0.00 0.00 0.00 0.00 0.00 0.00 0.00 0.00 0.00 0.00 0.00
0.00 0.00 0.00 0.00 0.00 0.00 0.00 0.00 0.00 0.00 0.00 0.00 0.00 0.00 0.00 0.00 0.00 0.00 0.00 0.00 0.01 0.01 0.02 0.03 0.06 0.06 0.09 0.12 0.08 0.03 0.03 0.01 0.00 0.00 0.00 0.00 0.00 0.00 0.00 0.00 0.00 0.00 0.00 0.00 0.00 0.00 0.00 0.00 0.00
0.00 0.00 0.00 0.00 0.00 0.00 0.00 0.00 0.00 0.00 0.00 0.00 0.00 0.00 0.00 0.00 0.00 0.00 0.00 0.03 0.04 0.07 0.08 0.02 0.10 0.10 0.08 0.08 0.03 0.01 0.00 0.00 0.00 0.00 0.00 0.00 0.00 0.00 0.00 0.00 0.00 0.00 0.00 0.00 0.00 0.00 0.00 0.00 0.00
0.00 0.00 0.00 0.00 0.00 0.00 0.00 0.00 0.00 0.00 0.00 0.00 0.00 0.00 0.00 0.00 0.00 0.00 0.00 0.02 0.04 0.08 0.04 0.05 0.09 0.08 0.07 0.05 0.01 0.00 0.00 0.00 0.00 0.00 0.00 0.00 0.00 0.00 0.00 0.00 0.00 0.00 0.00 0.00 0.00 0.00 0.00 0.00 0.00
0.00 0.00 0.00 0.00 0.00 0.00 0.00 0.00 0.00 0.00 0.00 0.00 0.00 0.00 0.00 0.00 0.00 0.00 0.00 0.00 0.00 0.02 0.02 0.03 0.06 0.05 0.06 0.03 0.00 0.00 0.00 0.00 0.00 0.00 0.00 0.00 0.00 0.00 0.00 0.00 0.00 0.00 0.00 0.00 0.00 0.00 0.00 0.00 0.00
0.00 0.00 0.00 0.00 0.00 0.00 0.00 0.00 0.00 0.00 0.00 0.00 0.00 0.00 0.00 0.00 0.00 0.00 0.00 0.00 0.04 0.04 0.01 0.01 0.03 0.03 0.04 0.01 0.00 0.00 0.00 0.00 0.00 0.00 0.00 0.00 0.00 0.00 0.00 0.00 0.00 0.00 0.00 0.00 0.00 0.00 0.00 0.00 0.00
0.00 0.00 0.00 0.00 0.00 0.00 0.00 0.00 0.00 0.00 0.00 0.00 0.00 0.00 0.00 0.00 0.00 0.00 0.00 0.00 0.03 0.01 0.00 0.01 0.02 0.03 0.03 0.01 0.00 0.00 0.00 0.00 0.00 0.00 0.00 0.00 0.00 0.00 0.00 0.00 0.00 0.00 0.00 0.00 0.00 0.00 0.00 0.00 0.00
0.00 0.00 0.00 0.00 0.00 0.00 0.00 0.00 0.00 0.00 0.00 0.00 0.00 0.00 0.00 0.00 0.00 0.00 0.00 0.00 0.00 0.00 0.00 0.00 0.00 0.02 0.02 0.01 0.00 0.00 0.00 0.00 0.00 0.00 0.00 0.00 0.00 0.00 0.00 0.00 0.00 0.00 0.00 0.00 0.00 0.00 0.00 0.00 0.00
0.00 0.00 0.00 0.00 0.00 0.00 0.00 0.00 0.00 0.00 0.00 0.00 0.00 0.00 0.00 0.00 0.00 0.00 0.00 0.00 0.00 0.00 0.00 0.00 0.00 0.00 0.00 0.00 0.00 0.00 0.00 0.00 0.00 0.00 0.00 0.00 0.00 0.00 0.00 0.00 0.00 0.00 0.00 0.00 0.00 0.00 0.00 0.00 0.00
0.00 0.00 0.00 0.00 0.00 0.00 0.00 0.00 0.00 0.00 0.00 0.00 0.00 0.00 0.00 0.00 0.00 0.00 0.00 0.00 0.00 0.00 0.00 0.00 0.00 0.00 0.00 0.00 0.00 0.00 0.00 0.00 0.00 0.00 0.00 0.00 0.00 0.00 0.00 0.00 0.00 0.00 0.00 0.00 0.00 0.00 0.00 0.00 0.00
0.00 0.00 0.00 0.00 0.00 0.00 0.00 0.00 0.00 0.00 0.00 0.00 0.00 0.00 0.00 0.00 0.00 0.00 0.00 0.00 0.00 0.00 0.00 0.00 0.00 0.00 0.00 0.00 0.00 0.00 0.00 0.00 0.00 0.00 0.00 0.00 0.00 0.00 0.00 0.00 0.00 0.00 0.00 0.00 0.00 0.00 0.00 0.00 0.00
0.00 0.00 0.00 0.00 0.00 0.00 0.00 0.00 0.00 0.00 0.00 0.00 0.00 0.00 0.00 0.00 0.00 0.00 0.00 0.00 0.00 0.00 0.00 0.00 0.00 0.00 0.00 0.00 0.00 0.00 0.00 0.00 0.00 0.00 0.00 0.00 0.00 0.00 0.00 0.00 0.00 0.00 0.00 0.00 0.00 0.00 0.00 0.00 0.00
0.00 0.00 0.00 0.00 0.00 0.00 0.00 0.00 0.00 0.00 0.00 0.00 0.00 0.00 0.00 0.00 0.00 0.00 0.00 0.00 0.00 0.00 0.00 0.00 0.00 0.00 0.00 0.00 0.00 0.00 0.00 0.00 0.00 0.00 0.00 0.00 0.00 0.00 0.00 0.00 0.00 0.00 0.00 0.00 0.00 0.00 0.00 0.00 0.00
0.00 0.00 0.00 0.00 0.00 0.00 0.00 0.00 0.00 0.00 0.00 0.00 0.00 0.00 0.00 0.00 0.00 0.00 0.00 0.00 0.00 0.00 0.00 0.00 0.00 0.00 0.00 0.00 0.00 0.00 0.00 0.00 0.00 0.00 0.00 0.00 0.00 0.00 0.00 0.00 0.00 0.00 0.00 0.00 0.00 0.00 0.00 0.00 0.00
0.00 0.00 0.00 0.00 0.00 0.00 0.00 0.00 0.00 0.00 0.00 0.00 0.00 0.00 0.00 0.00 0.00 0.00 0.00 0.00 0.00 0.00 0.00 0.00 0.00 0.00 0.00 0.00 0.00 0.00 0.00 0.00 0.00 0.00 0.00 0.00 0.00 0.00 0.00 0.00 0.00 0.00 0.00 0.00 0.00 0.00 0.00 0.00 0.00
0.00 0.00 0.00 0.00 0.00 0.00 0.00 0.00 0.00 0.00 0.00 0.00 0.00 0.00 0.00 0.00 0.00 0.00 0.00 0.00 0.00 0.00 0.00 0.00 0.00 0.00 0.00 0.00 0.00 0.00 0.00 0.00 0.00 0.00 0.00 0.00 0.00 0.00 0.00 0.00 0.00 0.00 0.00 0.00 0.00 0.00 0.00 0.00 0.00
0.00 0.00 0.00 0.00 0.00 0.00 0.00 0.00 0.00 0.00 0.00 0.00 0.00 0.00 0.00 0.00 0.00 0.00 0.00 0.00 0.00 0.00 0.00 0.00 0.00 0.00 0.00 0.00 0.00 0.00 0.00 0.00 0.00 0.00 0.00 0.00 0.00 0.00 0.00 0.00 0.00 0.00 0.00 0.00 0.00 0.00 0.00 0.00 0.00
0.00 0.00 0.00 0.00 0.00 0.00 0.00 0.00 0.00 0.00 0.00 0.00 0.00 0.00 0.00 0.00 0.00 0.00 0.00 0.00 0.00 0.00 0.00 0.00 0.00 0.00 0.00 0.00 0.00 0.00 0.00 0.00 0.00 0.00 0.00 0.00 0.00 0.00 0.00 0.00 0.00 0.00 0.00 0.00 0.00 0.00 0.00 0.00 0.00
0.00 0.00 0.00 0.00 0.00 0.00 0.00 0.00 0.00 0.00 0.00 0.00 0.00 0.00 0.00 0.00 0.00 0.00 0.00 0.00 0.00 0.00 0.00 0.00 0.00 0.00 0.00 0.00 0.00 0.00 0.00 0.00 0.00 0.00 0.00 0.00 0.00 0.00 0.00 0.00 0.00 0.00 0.00 0.00 0.00 0.00 0.00 0.00 0.00
0.00 0.00 0.00 0.01 0.01 0.01 0.00 0.00 0.00 0.00 0.00 0.00 0.00 0.00 0.00 0.00 0.00 0.00 0.00 0.00 0.00 0.00 0.00 0.00 0.00 0.00 0.00 0.00 0.00 0.00 0.00 0.00 0.00 0.00 0.00 0.00 0.00 0.00 0.00 0.00 0.00 0.00 0.00 0.00 0.00 0.00 0.00 0.00 0.00
0.00 0.00 0.00 0.02 0.00 0.00 0.01 0.00 0.00 0.00 0.00 0.00 0.00 0.00 0.00 0.00 0.00 0.00 0.00 0.00 0.00 0.00 0.00 0.00 0.00 0.00 0.00 0.00 0.00 0.00 0.00 0.00 0.00 0.00 0.00 0.00 0.00 0.00 0.00 0.00 0.00 0.00 0.00 0.00 0.00 0.00 0.00 0.00 0.00
MSLP
1013.21 1012.88 1012.29 1011.90 1012.20 1010.94 1009.87 1009.01 1008.01 1007.59 1007.37 1007.11 1007.23 1007.34 1007.45 1007.14 1007.33 1008.75 1008.88 1008.94 1009.10 1010.15 1011.06 1011.68 1011.94 1012.26 1012.60 1012.79 1013.14 1013.45 1013.66 1013.96 1014.27 1014.56 1014.70 1014.89 1015.09 1015.28 1015.52 1015.75 1015.91 1015.98 1016.08 1016.29 1016.47 1016.63 1016.79 1016.92 1017.00
1012.74 1012.36 1012.11 1011.69 1011.21 1010.26 1009.23 1008.43 1007.60 1007.27 1007.29 1007.40 1007.62 1007.66 1007.70 1007.47 1007.47 1008.53 1009.00 1009.17 1009.35 1010.22 1011.00 1011.71 1012.18 1012.46 1012.77 1013.09 1013.42 1013.65 1013.86 1014.12 1014.44 1014.80 1015.04 1015.24 1015.47 1015.66 1015.82 1016.01 1016.13 1016.24 1016.37 1016.43 1016.57 1016.77 1016.98 1017.20 1017.38
1013.19 1012.08 1012.12 1011.22 1010.50 1009.66 1008.94 1007.91 1007.64 1007.27 1007.30 1007.49 1007.61 1007.50 1007.71 1007.90 1007.97 1008.53 1008.88 1009.14 1009.75 1010.33 1010.85 1011.77 1012.32 1012.73 1013.01 1013.18 1013.53 1013.93 1014.08 1014.21 1014.53 1014.86 1015.22 1015.53 1015.77 1016.04 1016.19 1016.33 1016.47 1016.55 1016.68 1016.74 1016.90 1017.09 1017.21 1017.33 1017.46
1012.60 1012.34 1012.09 1010.57 1009.59 1008.87 1008.41 1007.71 1007.57 1007.41 1007.30 1007.41 1007.76 1007.83 1007.80 1008.13 1008.26 1008.31 1008.93 1009.25 1010.02 1010.58 1011.17 1011.90 1012.42 1012.87 1013.17 1013.41 1013.65 1013.99 1014.38 1014.48 1014.69 1014.97 1015.36 1015.72 1016.04 1016.26 1016.45 1016.61 1016.74 1016.85 1016.98 1017.20 1017.38 1017.57 1017.67 1017.71 1017.78
1012.37 1011.74 1011.35 1010.28 1009.63 1008.92 1007.73 1007.36 1007.60 1007.70 1007.48 1007.63 1007.95 1007.91 1008.01 1008.39 1008.56 1008.90 1009.21 1009.61 1010.12 1010.94 1011.64 1012.05 1012.52 1012.96 1013.27 1013.62 1013.92 1014.16 1014.41 1014.77 1015.03 1015.24 1015.54 1015.93 1016.32 1016.59 1016.85 1017.08 1017.24 1017.29 1017.45 1017.64 1017.73 1017.87 1017.99 1018.08 1018.16
1012.21 1011.58 1010.64 1010.02 1009.44 1008.46 1007.58 1007.13 1007.48 1007.83 1007.64 1007.64 1007.91 1008.13 1008.32 1008.40 1008.70 1009.10 1009.39 1010.03 1010.44 1011.15 1011.54 1012.29 1012.72 1013.15 1013.48 1013.72 1014.06 1014.42 1014.66 1014.91 1015.34 1015.68 1015.95 1016.18 1016.52 1016.90 1017.20 1017.38 1017.60 1017.73 1017.77 1017.92 1018.12 1018.18 1018.23 1018.26 1018.32
1011.86 1011.26 1010.53 1009.89 1009.01 1007.82 1006.94 1006.48 1007.25 1007.79 1007.93 1007.61 1007.63 1007.94 1008.40 1008.73 1008.67 1009.04 1009.73 1010.22 1010.58 1011.01 1011.60 1012.30 1012.85 1013.30 1013.68 1013.99 1014.26 1014.59 1015.02 1015.27 1015.59 1016.02 1016.50 1016.87 1016.99 1017.19 1017.54 1017.75 1017.86 1018.10 1018.20 1018.29 1018.40 1018.45 1018.53 1018.48 1018.50
1011.71 1011.60 1010.68 1009.84 1009.14 1007.97 1007.09 1007.32 1007.46 1007.97 1007.99 1007.72 1007.50 1007.62 1008.10 1008.20 1008.84 1009.24 1009.89 1010.31 1010.68 1011.27 1011.76 1012.13 1012.85 1013.39 1013.95 1014.28 1014.54 1015.00 1015.42 1015.82 1016.12 1016.53 1017.13 1017.38 1017.58 1017.72 1018.04 1018.19 1018.28 1018.51 1018.59 1018.67 1018.72 1018.73 1018.79 1018.67 1018.65
1011.74 1011.46 1010.36 1009.88 1009.08 1008.17 1007.63 1007.59 1007.75 1007.87 1008.15 1007.93 1007.60 1007.69 1008.38 1008.66 1009.44 1009.69 1010.33 1010.84 1011.14 1011.51 1011.97 1012.36 1013.16 1013.78 1014.21 1014.73 1015.13 1015.50 1015.97 1016.22 1016.60 1017.04 1017.43 1017.66 1017.86 1018.12 1018.34 1018.57 1018.71 1018.87 1018.94 1018.90 1018.94 1018.92 1018.91 1018.67 1018.70
1011.79 1011.30 1010.45 1009.45 1008.68 1008.23 1007.65 1007.72 1007.92 1008.16 1007.95 1008.12 1007.94 1007.80 1008.30 1009.10 1009.95 1010.20 1010.48 1010.79 1011.49 1012.01 1012.49 1012.94 1013.39 1014.01 1014.53 1015.04 1015.42 1015.76 1016.16 1016.64 1017.00 1017.31 1017.50 1017.60 1017.86 1018.21 1018.54 1018.82 1018.88 1019.07 1019.10 1019.03 1018.95 1018.92 1018.87 1018.87 1018.97
1011.72 1011.28 1010.57 1009.56 1008.96 1008.70 1008.51 1008.51 1008.28 1008.23 1008.27 1008.14 1007.81 1007.83 1007.98 1008.87 1009.82 1010.38 1010.62 1010.79 1011.16 1011.86 1012.61 1013.14 1013.56 1014.04 1014.46 1015.14 1015.49 1015.92 1016.23 1016.55 1016.83 1017.35 1017.46 1017.83 1018.17 1018.48 1018.69 1018.88 1019.01 1019.22 1019.16 1019.22 1019.16 1019.14 1019.12 1019.16 1019.30
1011.82 1011.45 1010.96 1010.19 1009.56 1009.34 1009.34 1009.12 1008.97 1008.70 1008.41 1008.11 1007.81 1007.96 1008.56 1008.93 1009.64 1010.04 1010.66 1010.78 1011.01 1011.78 1012.54 1013.20 1013.67 1014.23 1014.48 1014.91 1015.38 1015.69 1015.85 1016.29 1016.87 1017.38 1017.62 1017.86 1018.19 1018.37 1018.53 1018.81 1018.99 1019.30 1019.40 1019.51 1019.43 1019.31 1019.25 1019.33 1019.37
1011.93 1011.52 1011.00 1010.49 1010.09 1009.71 1009.67 1009.56 1009.42 1008.98 1008.77 1008.31 1008.08 1008.05 1008.45 1008.83 1008.89 1009.22 1009.78 1010.60 1011.30 1011.82 1012.52 1013.09 1013.61 1014.18 1014.35 1014.89 1015.32 1015.54 1015.68 1016.16 1016.73 1017.32 1017.55 1017.73 1018.09 1018.40 1018.64 1018.87 1019.17 1019.49 1019.64 1019.72 1019.60 1019.55 1019.55 1019.56 1019.45
1011.98 1011.81 1011.21 1010.69 1010.10 1009.91 1009.81 1009.50 1009.59 1008.91 1008.53 1008.42 1008.30 1008.27 1008.29 1008.51 1008.56 1008.67 1009.11 1009.67 1010.58 1011.48 1012.37 1013.01 1013.60 1013.96 1014.17 1014.79 1014.99 1015.28 1015.46 1015.94 1016.52 1017.23 1017.46 1017.66 1017.96 1018.26 1018.60 1018.97 1019.30 1019.75 1019.98 1019.90 1019.69 1019.72 1019.69 1019.66 1019.52
1012.59 1012.27 1011.48 1010.50 1009.66 1009.79 1009.70 1009.38 1008.99 1008.35 1008.41 1008.30 1008.17 1008.16 1008.16 1008.11 1008.06 1008.23 1008.42 1008.95 1009.68 1010.51 1011.53 1012.57 1013.23 1013.72 1014.11 1014.65 1014.71 1015.28 1015.21 1015.81 1016.58 1017.18 1017.51 1017.82 1017.96 1018.18 1018.58 1019.11 1019.58 1019.98 1020.01 1019.79 1019.65 1019.63 1019.57 1019.75 1019.58
1013.02 1012.49 1011.44 1009.55 1009.19 1009.02 1009.64 1008.87 1008.37 1007.79 1007.62 1007.78 1007.84 1007.89 1007.82 1007.71 1007.44 1007.61 1007.78 1008.22 1009.04 1010.14 1011.00 1012.07 1012.68 1013.25 1013.89 1014.37 1014.75 1015.11 1015.37 1015.81 1016.66 1017.25 1017.60 1017.90 1018.01 1018.26 1018.73 1019.20 1019.79 1019.97 1019.98 1019.81 1019.87 1020.03 1020.02 1019.97 1019.86
1012.86 1012.30 1011.26 1010.03 1009.14 1008.98 1009.22 1009.03 1008.24 1007.89 1007.63 1007.64 1007.47 1007.41 1007.35 1007.05 1006.83 1006.97 1007.17 1007.52 1008.45 1009.51 1010.51 1011.41 1012.16 1012.96 1013.50 1014.16 1014.69 1015.05 1015.47 1016.05 1016.72 1017.19 1017.63 1017.99 1018.18 1018.39 1018.82 1019.30 1019.86 1019.88 1020.01 1019.97 1020.20 1020.34 1020.33 1020.31 1020.18
1012.52 1012.35 1011.42 1010.68 1009.94 1009.83 1009.71 1009.37 1008.72 1008.24 1007.93 1007.73 1007.49 1007.25 1007.06 1006.77 1006.47 1006.53 1006.76 1006.87 1007.74 1008.88 1009.92 1010.97 1011.78 1012.67 1013.41 1014.05 1014.69 1015.29 1015.81 1016.17 1016.58 1017.15 1017.53 1017.94 1018.28 1018.46 1018.89 1019.41 1019.76 1019.83 1020.04 1020.28 1020.43 1020.62 1020.51 1020.40 1020.34
1012.68 1012.57 1012.14 1011.33 1010.70 1010.33 1010.02 1009.48 1008.93 1008.01 1007.61 1007.28 1006.90 1006.93 1006.71 1006.63 1006.46 1006.40 1006.35 1006.53 1007.22 1008.21 1009.43 1010.48 1011.42 1012.22 1012.96 1013.63 1014.40 1015.20 1015.82 1016.10 1016.65 1017.07 1017.53 1017.90 1018.19 1018.55 1018.85 1019.32 1019.56 1019.85 1020.22 1020.46 1020.62 1020.69 1020.74 1020.69 1020.48
1013.01 1012.81 1012.36 1011.57 1010.99 1010.93 1010.43 1009.54 1008.78 1007.45 1006.89 1006.90 1006.55 1006.51 1006.56 1006.66 1006.62 1006.56 1006.51 1006.85 1007.22 1007.78 1008.69 1009.78 1010.78 1011.65 1012.38 1013.08 1013.83 1014.33 1015.42 1015.99 1016.49 1017.03 1017.63 1017.94 1018.15 1018.59 1018.86 1019.20 1019.71 1019.96 1020.30 1020.48 1020.69 1020.80 1021.07 1020.76 1020.83
1013.10 1013.00 1012.73 1012.43 1011.71 1011.30 1010.77 1009.49 1008.27 1006.74 1006.14 1006.27 1006.29 1006.42 1006.47 1006.53 1006.79 1006.66 1006.60 1006.59 1007.11 1007.49 1008.03 1008.88 1009.90 1010.78 1011.76 1012.67 1013.55 1014.28 1015.20 1015.86 1016.73 1017.16 1017.77 1018.03 1018.25 1018.64 1018.94 1019.25 1019.64 1020.06 1020.26 1020.59 1020.80 1020.89 1021.05 1021.23 1021.18
1013.19 1012.94 1012.89 1012.96 1012.91 1012.51 1011.53 1010.70 1009.07 1007.41 1006.54 1006.52 1007.14 1007.60 1007.66 1007.78 1007.67 1007.55 1007.32 1006.86 1006.75 1006.98 1007.46 1008.25 1008.96 1009.94 1010.98 1012.03 1012.86 1013.46 1013.85 1014.92 1015.80 1016.58 1017.50 1018.02 1018.17 1018.64 1018.86 1019.29 1019.66 1020.06 1020.38 1020.66 1020.83 1020.80 1021.16 1021.32 1021.38
1013.20 1013.44 1013.68 1013.77 1013.82 1013.40 1012.27 1011.77 1009.13 1007.55 1007.35 1007.97 1008.32 1008.75 1009.12 1009.38 1009.14 1008.91 1008.47 1007.80 1007.29 1006.86 1007.28 1007.91 1008.79 1009.67 1010.44 1011.12 1011.86 1012.78 1013.70 1014.43 1015.09 1016.29 1017.28 1017.76 1018.18 1018.65 1018.95 1019.24 1019.75 1020.22 1020.43 1020.74 1021.02 1021.08 1021.27 1021.41 1021.45
1013.66 1013.91 1014.02 1014.33 1014.69 1014.04 1012.25 1011.45 1009.41 1008.18 1008.38 1008.66 1009.16 1009.61 1010.04 1010.36 1010.19 1009.95 1009.36 1008.54 1007.75 1007.18 1007.32 1007.83 1008.50 1009.29 1010.08 1010.70 1011.16 1011.86 1012.80 1013.82 1014.85 1015.97 1016.93 1017.58 1018.14 1018.79 1018.99 1019.19 1019.81 1020.04 1020.41 1020.90 1021.22 1021.31 1021.46 1021.54 1021.65
1014.38 1014.94 1015.04 1015.46 1015.65 1014.22 1012.26 1011.20 1009.23 1008.26 1008.32 1008.96 1009.66 1010.32 1010.78 1010.85 1010.75 1010.62 1010.20 1009.60 1008.86 1008.62 1008.09 1008.20 1008.64 1009.25 1009.93 1010.55 1011.15 1011.55 1012.21 1013.07 1014.10 1015.22 1016.17 1017.13 1017.90 1018.53 1018.89 1019.24 1019.73 1019.98 1020.30 1020.71 1021.13 1021.49 1021.61 1021.66 1021.83
1014.59 1015.39 1015.92 1015.95 1015.67 1014.79 1013.00 1011.22 1009.25 1008.48 1008.80 1009.60 1010.22 1010.89 1011.46 1011.45 1011.16 1011.23 1011.20 1010.85 1010.22 1009.74 1009.23 1008.93 1008.94 1009.30 1009.90 1010.47 1011.09 1011.55 1012.05 1012.73 1013.61 1014.49 1015.40 1016.31 1017.13 1017.85 1018.45 1018.92 1019.40 1019.81 1020.27 1020.65 1021.03 1021.52 1021.61 1021.71 1022.00
1014.96 1015.60 1015.84 1016.50 1016.33 1015.96 1013.61 1011.05 1009.19 1009.12 1009.80 1010.47 1011.27 1011.96 1012.30 1012.35 1012.00 1011.81 1011.64 1011.55 1011.29 1010.83 1010.19 1009.71 1009.43 1009.47 1009.89 1010.51 1011.11 1011.54 1012.07 1012.52 1013.27 1014.18 1014.98 1015.78 1016.61 1017.29 1018.08 1018.62 1019.34 1019.78 1020.22 1020.59 1020.94 1021.47 1021.68 1021.84 1022.03
1015.69 1016.38 1016.65 1017.06 1017.51 1016.19 1013.54 1011.82 1010.36 1010.53 1011.18 1011.84 1012.59 1013.22 1013.29 1013.15 1012.88 1012.56 1012.21 1011.95 1011.73 1011.34 1010.85 1010.28 1009.98 1009.98 1010.13 1010.69 1011.16 1011.56 1012.04 1012.43 1013.05 1013.84 1014.65 1015.44 1016.18 1016.95 1017.75 1018.48 1019.06 1019.73 1020.17 1020.56 1020.91 1021.40 1021.77 1022.03 1022.05
1016.81 1017.05 1017.57 1018.09 1017.80 1016.90 1015.05 1012.69 1011.04 1011.96 1012.94 1013.76 1014.18 1014.48 1014.27 1014.20 1013.84 1013.57 1013.11 1012.80 1012.37 1011.81 1011.44 1011.02 1010.54 1010.40 1010.59 1010.93 1011.32 1011.76 1012.14 1012.52 1013.07 1013.71 1014.43 1015.20 1015.86 1016.70 1017.49 1018.19 1018.89 1019.58 1020.17 1020.60 1020.95 1021.50 1021.83 1022.00 1022.08
1017.86 1018.59 1019.05 1019.91 1019.27 1018.33 1016.64 1014.07 1013.38 1013.63 1014.65 1015.15 1015.26 1015.15 1015.27 1015.37 1014.96 1014.54 1014.19 1013.71 1013.18 1012.82 1012.17 1011.74 1011.19 1010.82 1010.81 1010.98 1011.41 1011.98 1012.28 1012.59 1013.21 1013.72 1014.32 1014.96 1015.66 1016.51 1017.21 1018.04 1018.84 1019.42 1019.99 1020.49 1020.72 1021.20 1021.64 1022.00 1022.11
Thickness
5659 5662 5668 5665 5640 5652 5654 5671 5693 5690 5694 5707 5710 5703 5699 5711 5706 5683 5723 5728 5733 5726 5718 5715 5714 5714 5713 5713 5712 5710 5710 5708 5706 5705 5705 5705 5704 5704 5703 5702 5702 5703 5704 5703 5702 5702 5701 5701 5700
5655 5660 5659 5652 5637 5636 5654 5679 5681 5692 5697 5703 5703 5701 5697 5698 5712 5712 5713 5723 5725 5720 5712 5710 5709 5707 5708 5707 5706 5705 5705 5704 5702 5700 5699 5699 5698 5698 5698 5698 5697 5697 5698 5699 5699 5698 5697 5697 5696
5645 5655 5639 5639 5639 5638 5649 5677 5679 5692 5695 5695 5693 5704 5698 5696 5710 5711 5719 5717 5716 5713 5710 5704 5702 5701 5700 5702 5701 5698 5699 5700 5699 5697 5694 5693 5692 5691 5692 5693 5693 5693 5693 5694 5693 5693 5693 5692 5691
5639 5637 5636 5630 5640 5659 5662 5675 5682 5682 5688 5695 5691 5682 5701 5706 5706 5714 5715 5712 5709 5707 5704 5698 5696 5694 5694 5694 5694 5693 5691 5693 5693 5692 5689 5688 5687 5687 5687 5687 5687 5688 5688 5687 5687 5686 5686 5686 5686
5632 5632 5619 5627 5636 5654 5671 5680 5677 5673 5677 5682 5683 5676 5686 5696 5705 5705 5706 5706 5703 5700 5694 5692 5690 5689 5688 5687 5686 5686 5686 5686 5685 5684 5684 5682 5680 5680 5680 5679 5680 5681 5681 5680 5681 5680 5680 5680 5679
5613 5624 5618 5619 5634 5655 5667 5676 5671 5667 5673 5679 5677 5674 5678 5695 5695 5697 5700 5695 5696 5692 5690 5685 5684 5682 5681 5681 5681 5680 5680 5679 5677 5676 5676 5676 5675 5673 5672 5672 5672 5673 5675 5674 5674 5674 5674 5675 5675
5608 5613 5615 5625 5633 5648 5663 5676 5665 5661 5662 5667 5679 5666 5674 5683 5691 5693 5692 5691 5690 5688 5685 5680 5678 5677 5676 5676 5675 5674 5671 5671 5670 5669 5667 5666 5668 5668 5666 5665 5666 5666 5667 5668 5668 5668 5668 5670 5670
5608 5605 5608 5620 5622 5634 5660 5657 5665 5654 5655 5674 5676 5662 5662 5681 5686 5687 5684 5683 5683 5681 5679 5677 5674 5672 5670 5669 5668 5665 5663 5662 5661 5660 5657 5658 5659 5660 5659 5659 5660 5659 5660 5660 5661 5663 5663 5664 5665
5606 5592 5599 5610 5619 5635 5648 5643 5657 5658 5651 5660 5668 5670 5668 5675 5676 5672 5671 5671 5672 5672 5672 5671 5667 5664 5662 5660 5659 5657 5655 5655 5653 5651 5651 5651 5651 5652 5654 5653 5653 5652 5653 5655 5656 5657 5657 5660 5660
5588 5586 5597 5621 5630 5628 5640 5640 5644 5638 5644 5646 5650 5664 5665 5663 5662 5659 5660 5662 5661 5661 5661 5661 5659 5656 5655 5652 5651 5650 5648 5646 5644 5644 5645 5646 5646 5646 5647 5647 5648 5647 5649 5650 5652 5653 5654 5656 5656
5585 5580 5598 5612 5621 5624 5624 5624 5637 5631 5627 5639 5643 5650 5658 5655 5653 5652 5655 5658 5659 5659 5655 5653 5651 5649 5649 5645 5644 5643 5642 5642 5641 5638 5640 5640 5641 5641 5642 5643 5643 5642 5643 5645 5647 5649 5651 5651 5650
5571 5583 5590 5599 5608 5609 5608 5619 5618 5624 5627 5639 5644 5645 5645 5647 5647 5647 5645 5649 5653 5652 5647 5647 5643 5640 5642 5640 5639 5639 5639 5639 5636 5634 5635 5635 5635 5637 5638 5639 5638 5637 5638 5639 5642 5646 5647 5647 5646
5566 5575 5585 5591 5596 5601 5604 5603 5607 5613 5623 5633 5637 5637 5637 5639 5643 5648 5647 5644 5642 5643 5641 5640 5638 5635 5635 5634 5633 5633 5636 5633 5631 5629 5630 5631 5632 5633 5633 5633 5632 5631 5632 5634 5639 5641 5641 5641 5642
5565 5568 5574 5582 5589 5592 5591 5598 5598 5612 5621 5623 5625 5625 5629 5630 5637 5641 5644 5643 5639 5639 5634 5632 5630 5629 5630 5627 5628 5630 5632 5631 5628 5625 5626 5627 5628 5629 5629 5628 5627 5625 5626 5629 5634 5635 5636 5637 5637
5551 5549 5561 5575 5585 5582 5588 5586 5594 5611 5614 5614 5618 5619 5622 5626 5631 5634 5640 5640 5640 5637 5634 5628 5626 5625 5625 5623 5624 5623 5628 5626 5622 5620 5620 5620 5623 5625 5625 5623 5622 5620 5622 5627 5630 5631 5632 5631 5631
5541 5546 5548 5578 5582 5587 5578 5577 5598 5610 5611 5610 5612 5614 5616 5621 5628 5633 5637 5638 5634 5631 5630 5624 5625 5623 5620 5619 5617 5618 5620 5620 5615 5615 5615 5615 5618 5619 5619 5619 5617 5617 5619 5623 5624 5624 5623 5623 5624
5537 5534 5549 5563 5579 5580 5573 5571 5595 5603 5606 5604 5609 5611 5614 5620 5626 5629 5632 5634 5631 5628 5624 5622 5620 5617 5616 5614 5612 5612 5613 5612 5610 5610 5609 5610 5611 5613 5614 5614 5612 5613 5614 5617 5616 5616 5616 5615 5616
5537 5535 5548 5550 5563 5562 5560 5562 5582 5590 5594 5595 5602 5604 5607 5614 5620 5623 5625 5630 5628 5624 5620 5617 5615 5612 5609 5608 5607 5606 5606 5606 5605 5604 5605 5605 5606 5608 5610 5609 5609 5609 5610 5609 5609 5608 5609 5609 5609
5534 5529 5528 5542 5553 5549 5554 5559 5570 5586 5588 5591 5598 5601 5603 5607 5612 5616 5621 5623 5624 5621 5617 5614 5611 5608 5607 5606 5603 5599 5599 5599 5599 5600 5600 5601 5602 5603 5605 5605 5605 5604 5603 5602 5602 5602 5601 5601 5602
5525 5523 5525 5538 5545 5543 5546 5553 5564 5584 5589 5589 5596 5598 5598 5599 5603 5607 5611 5612 5613 5616 5614 5610 5607 5605 5604 5603 5599 5598 5594 5594 5595 5595 5594 5595 5598 5598 5600 5600 5599 5598 5597 5596 5595 5595 5593 5595 5594
5519 5518 5520 5522 5534 5538 5535 5544 5562 5584 5590 5589 5590 5591 5595 5596 5596 5600 5604 5606 5605 5610 5611 5610 5606 5603 5600 5597 5593 5590 5589 5590 5588 5587 5586 5590 5592 5593 5594 5594 5593 5591 5591 5589 5588 5588 5587 5586 5586
5508 5523 5523 5520 5516 5500 5534 5487 5550 5567 5578 5577 5570 5568 5573 5576 5581 5585 5591 5598 5601 5606 5608 5608 5604 5600 5598 5593 5590 5591 5594 5590 5587 5585 5584 5584 5586 5586 5588 5588 5586 5585 5583 5583 5582 5583 5580 5580 5580
5511 5513 5511 5511 5503 5501 5524 5481 5538 5560 5565 5550 5555 5554 5552 5555 5561 5565 5573 5582 5590 5597 5599 5600 5597 5594 5593 5592 5591 5588 5585 5586 5586 5582 5578 5579 5580 5580 5581 5581 5579 5577 5577 5576 5575 5575 5574 5573 5574
5505 5503 5505 5504 5495 5448 5513 5509 5525 5544 5541 5541 5540 5538 5537 5539 5544 5549 5557 5566 5576 5586 5589 5590 5591 5590 5589 5587 5589 5589 5586 5584 5582 5577 5574 5574 5574 5573 5574 5575 5572 5572 5571 5569 5567 5568 5567 5567 5566
5491 5478 5438 5445 5449 5450 5521 5517 5527 5539 5538 5534 5527 5525 5523 5526 5529 5534 5540 5548 5557 5564 5573 5577 5579 5581 5582 5581 5582 5584 5584 5585 5581 5576 5573 5570 5568 5567 5568 5568 5566 5567 5565 5563 5562 5561 5560 5560 5559
5476 5467 5427 5430 5449 5471 5505 5487 5523 5532 5529 5524 5520 5515 5512 5515 5518 5518 5522 5527 5535 5545 5555 5562 5566 5570 5572 5573 5574 5575 5576 5579 5576 5574 5572 5569 5567 5565 5565 5563 5561 5561 5559 5557 5556 5554 5553 5554 5553
5468 5442 5473 5425 5425 5420 5475 5509 5526 5518 5513 5510 5505 5497 5494 5498 5503 5508 5510 5513 5518 5525 5537 5546 5553 5559 5562 5563 5564 5565 5568 5571 5571 5568 5566 5565 5563 5562 5559 5558 5556 5554 5552 5551 5550 5547 5547 5548 5547
5446 5448 5427 5414 5393 5407 5466 5491 5499 5496 5490 5487 5483 5476 5477 5479 5486 5493 5499 5501 5506 5512 5521 5531 5537 5544 5550 5552 5554 5556 5559 5562 5562 5562 5561 5559 5558 5556 5554 5552 5550 5547 5545 5544 5543 5541 5540 5539 5540
5414 5409 5414 5424 5427 5426 5421 5459 5495 5475 5461 5453 5456 5457 5461 5462 5468 5474 5481 5486 5492 5499 5507 5515 5524 5530 5535 5540 5542 5546 5550 5552 5554 5555 5554 5553 5553 5550 5548 5546 5544 5541 5538 5537 5536 5533 5533 5533 5533
5411 5398 5398 5380 5386 5397 5409 5447 5457 5445 5433 5432 5436 5445 5445 5443 5448 5454 5459 5467 5476 5483 5491 5498 5508 5514 5521 5529 5531 5534 5538 5542 5543 5545 5546 5546 5545 5542 5542 5539 5536 5534 5532 5530 5530 5528 5527 5526 5527